Regional Weather Roundup
Issued by NWS

Home | Current Version | Previous Version | Graphics & Text | Print | Product List | Glossary On
Versions: 1 2 3 4 5 6 7 8 9 10 11 12 13 14 15 16 17 18 19 20 21 22 23 24 25 26 27 28 29 30 31 32 33 34 35 36 37 38 39 40 41 42 43 44 45 46 47 48 49 50
000
ASUS45 KPSR 220310
RWRAZ

ARIZONA REGIONAL HOURLY WEATHER ROUNDUP
NATIONAL WEATHER SERVICE PHOENIX AZ
800 PM MST TUE OCT 21 2014

NOTE: FAIR INDICATES FEW OR NO CLOUDS BELOW 12,000 FEET WITH NO
SIGNIFICANT WEATHER AND/OR OBSTRUCTIONS TO VISIBILITY.

AZZ001>003-036-220400-
NORTHWEST ARIZONA

CITY           SKY/WX    TMP DP  RH WIND       PRES   REMARKS
BULLHEAD CITY  CLEAR     82  37  20 S8        29.79R
KINGMAN        CLEAR     67  44  43 S10       29.94R
$$

AZZ004>008-015-016-018-220400-
NORTH CENTRAL ARIZONA

CITY           SKY/WX    TMP DP  RH WIND       PRES   REMARKS
GRAND CANYON   MOCLDY    45  32  60 CALM      30.11R
PRESCOTT       PTCLDY    60  41  49 S7        30.05R
FLAGSTAFF      CLEAR     47  36  65 SW5       30.15R
PAYSON         CLEAR     59  46  63 CALM      30.07S
PAGE           PTCLDY    67  36  31 S3        29.93S
$$

AZZ009>014-017-220400-
NORTHEAST ARIZONA

CITY           SKY/WX    TMP DP  RH WIND       PRES   REMARKS
WINSLOW        PTCLDY    59  47  64 CALM      30.02R
SAINT JOHNS    CLEAR     59  47  64 SW10      30.06R
WINDOW ROCK    PTCLDY    50  43  77 CALM      30.13R
SHOW LOW       CLEAR     50  45  81 S8        30.14S
$$

AZZ023-220400-
GREATER PHOENIX AREA

CITY           SKY/WX    TMP DP  RH WIND       PRES   REMARKS
PHOENIX        PTCLDY    81  54  39 CALM      29.80R
BUCKEYE          N/A     75  48  38 E6        29.81S
GLENDALE       PTCLDY    81  55  41 S3        29.82R
LUKE AFB       CLEAR     76  56  50 CALM      29.80S
DEER VALLEY    CLEAR     75  51  43 E3        29.82S
SCOTTSDALE     CLEAR     78  51  38 NE3       29.84S
MESA-GATEWAY   PTCLDY    77  50  38 CALM      29.85R
CHANDLER       PTCLDY    77  50  38 W6        29.82R
$$

AZZ027-028-220400-
SOUTHWEST MARICOPA COUNTY AND PINAL COUNTY

CITY           SKY/WX    TMP DP  RH WIND       PRES   REMARKS
CASA GRANDE    CLEAR     73  48  40 CALM      29.84R
GILA BEND      CLEAR     77  50  38 SE3       29.80
$$

AZZ503-504-507>509-220400-
SOUTHEAST ARIZONA

CITY           SKY/WX    TMP DP  RH WIND       PRES   REMARKS
TUCSON         MOCLDY    76  46  34 N7        29.91R
DAVIS-MONTHAN  CLEAR     73  47  39 W7        29.89R
RYAN FIELD       N/A     75  52  43 NW5       29.90R
NOGALES        MOCLDY    63  45  51 MISG      29.97R
SIERRA VISTA   MOCLDY    63  45  51 SW6       30.01R
DOUGLAS        CLEAR     62  47  57 E8        29.99R
SAFFORD        MOCLDY    67  56  67 CALM      29.93R
$$

AZZ020-021-025-026-031-220400-
SOUTHWEST ARIZONA

CITY           SKY/WX    TMP DP  RH WIND       PRES   REMARKS
YUMA           PTCLDY    86  50  28 CALM      29.75R
$$

CAZ031-033-041-043-047-048-061-220400-
SOUTHERN CALIFORNIA

CITY           SKY/WX    TMP DP  RH WIND       PRES   REMARKS
DOWNTOWN L.A.  CLEAR     69  61  75 CALM      29.85R
L.A. AIRPORT   CLEAR     67  64  90 W7        29.86R
SAN DIEGO      MOCLDY    70  61  73 VRB3      29.88R
BURBANK        CLEAR     69  59  70 CALM      29.86R
ONTARIO        PTCLDY    70  56  61 W8        29.87R
RIVERSIDE      CLEAR     70  58  65 W5        29.87R
PALM SPRINGS   CLEAR     85  44  23 NW13      29.78R
EL CENTRO NAS  PTCLDY    80  47  31 VRB3      29.73R
IMPERIAL       PTCLDY    84  49  29 CALM      29.72R
BLYTHE         CLEAR     84  49  29 CALM      29.75R
NEEDLES        CLEAR     83  37  19 W10       29.79R
$$

NVZ020-UTZ003-220400-
SOUTHERN NEVADA-UTAH

CITY           SKY/WX    TMP DP  RH WIND       PRES   REMARKS
LAS VEGAS      PTCLDY    77  24  14 SW15      29.80R
SALT LAKE CITY MOCLDY    52  33  48 NW3       30.05R
$$

NMZ009-TXZ055-220400-
NEW MEXICO-WEST TEXAS

CITY           SKY/WX    TMP DP  RH WIND       PRES   REMARKS
ALBUQUERQUE    PTCLDY    57  47  69 SE7       30.10R
EL PASO        PTCLDY    63  54  72 E6        30.03R
$$


........................KEY........................
SKY/WX - SKY CONDITION/WEATHER
TMP    - TEMPERATURE IN FAHRENHEIT
DP     - DEW POINT IN FAHRENHEIT
RH     - RELATIVE HUMIDITY IN PERCENT
WIND   - DIRECTION AND SPEED IN MILES PER HOUR (MPH)
VRB    - VARIABLE WIND DIRECTION
PRES   - MEAN SEA LEVEL PRESSURE IN INCHES OF MERCURY
         F - FALLING PRESSURE   R - RISING PRESSURE
         S - STEADY PRESSURE
VSB    - VISIBILITY IN MILES
HX     - HEAT INDEX IN FAHRENHEIT
WCI    - WIND CHILL INDEX IN FAHRENHEIT
TC     - TEMPERATURE IN CELSIUS WHICH IS ALSO KNOWN AS
         TEMPERATURE IN CENTIGRADE
AFB    - AIR FORCE BASE
         LUKE AFB IS LUKE AIR FORCE BASE
         DAVIS-MONTHAN IS DAVIS-MONTHAN AIR FORCE BASE
NAS    - NAVAL AIR STATION
         EL CENTRO NAS IS EL CENTRO NAVAL AIR STATION
N/A    - NOT AVAILABLE



USA.gov is the U.S. government's official web portal to all federal, state and local government web resources and services.